Weather History for Dumas, TX

Change the Weather History Date:

Wednesday, April 2, 2014

  Actual Average (KBGD) Record (KBGD)
Temperature  
Mean Temperature 62 °F 55 °F  
Max Temperature 81 °F 69 °F 89 °F (2011)
Min Temperature 44 °F 41 °F 22 °F (1970)
Degree Days  
Heating Degree Days 2 11  
Month to date heating degree days 22  
Since 1 July heating degree days 3499  
Cooling Degree Days 0 0  
Month to date cooling degree days 0  
Year to date cooling degree days 7  
Growing Degree Days 12 (Base 50)    
Moisture  
Dew Point 9 °F    
Average Humidity 15    
Maximum Humidity 49    
Minimum Humidity 5    
Precipitation  
Precipitation 0.00 in 0.06 in 1.03 in (1973)
Month to date precipitation 0.11  
Year to date precipitation 2.73  
Snow  
Snow 0.00 in - 0.50 in (1988)
Month to date snowfall  
Since 1 July snowfall  
Snow Depth -    
Sea Level Pressure  
Sea Level Pressure 29.67 in    
Wind  
Wind Speed 14 mph (SSW)    
Max Wind Speed 31 mph    
Max Gust Speed 39 mph    
Visibility 10 miles    
Events      
T = Trace of Precipitation, MM = Missing Value Source: NWS Daily Summary

Daily Weather History Graph

Daily Weather History Graph

Search for Another Location

Airport:

Trip Planner

Search our weather history database for the weather conditions in past years. The results will help you decide how hot, cold, wet, or windy it might be!

Date:

Astronomy

Apr. 02, 2014 Rise Set
Actual Time 7:32 AM CDT 8:10 PM CDT
Civil Twilight 7:07 AM CDT 8:36 PM CDT
Nautical Twilight 6:36 AM CDT 9:07 PM CDT
Astronomical Twilight 6:05 AM CDT 9:38 PM CDT
Moon 9:24 AM CDT (4/2) 11:29 PM CDT (4/2)
Length of Visible Light 13h 29m
Length of Day
12h 37m
Waxing Crescent, 10% of the Moon is Illuminated
Apr 2
Waxing Crescent
Apr 7
First Quarter
Apr 15
Full
Apr 22
Last Quarter
Apr 29
New

Hourly Weather History & Observations

Time (CDT) Temp. Windchill Dew Point Humidity Pressure Visibility Wind Dir Wind Speed Gust Speed Precip Events Conditions
12:15 AM 51.8 °F - 30.7 °F 45% 29.73 in 10.0 mi SE 11.5 mph - N/A   Clear
12:35 AM 51.1 °F - 30.0 °F 44% 29.74 in 10.0 mi SE 10.4 mph - N/A   Clear
1:15 AM 49.3 °F - 28.4 °F 45% 29.73 in 10.0 mi SE 10.4 mph - N/A   Clear
1:35 AM 49.3 °F - 29.1 °F 46% 29.73 in 10.0 mi SE 10.4 mph - N/A   Clear
1:55 AM 47.5 °F - 29.1 °F 49% 29.73 in 10.0 mi SE 9.2 mph - N/A   Clear
2:15 AM 44.8 °F 40.4 °F 26.4 °F 49% 29.73 in 10.0 mi SSE 8.1 mph - N/A   Clear
2:35 AM 44.8 °F 39.4 °F 24.1 °F 44% 29.73 in 10.0 mi SSE 10.4 mph - N/A   Clear
2:55 AM 50.2 °F - 18.1 °F 28% 29.73 in 10.0 mi South 10.4 mph - N/A   Clear
3:15 AM 52.0 °F - 14.0 °F 22% 29.72 in 10.0 mi Calm Calm - N/A   Clear
3:35 AM 51.8 °F - 12.2 °F 21% 29.71 in 10.0 mi Calm Calm - N/A   Clear
3:55 AM 53.8 °F - 11.3 °F 18% 29.71 in 10.0 mi WSW 12.7 mph - N/A   Clear
4:15 AM 52.5 °F - 10.9 °F 19% 29.71 in 10.0 mi WSW 12.7 mph - N/A   Clear
4:35 AM 53.6 °F - 10.9 °F 18% 29.71 in 10.0 mi WSW 16.1 mph - N/A   Clear
4:55 AM 52.9 °F - 10.0 °F 18% 29.71 in 10.0 mi WSW 17.3 mph - N/A   Clear
5:15 AM 51.8 °F - 9.0 °F 18% 29.71 in 10.0 mi SW 15.0 mph - N/A   Clear
5:35 AM 50.0 °F - 8.8 °F 19% 29.70 in 10.0 mi SW 15.0 mph - N/A   Clear
5:55 AM 51.1 °F - 8.6 °F 18% 29.71 in 10.0 mi SW 16.1 mph - N/A   Clear
6:15 AM 51.1 °F - 7.9 °F 18% 29.70 in 10.0 mi WSW 17.3 mph - N/A   Clear
7:35 AM 47.1 °F - 8.4 °F 21% 29.72 in 10.0 mi SSW 12.7 mph - N/A   Clear
7:55 AM 47.5 °F - 9.0 °F 21% 29.73 in 10.0 mi SSW 13.8 mph - N/A   Clear
8:15 AM 49.6 °F - 9.0 °F 19% 29.73 in 10.0 mi SSW 10.4 mph - N/A   Clear
8:35 AM 50.2 °F - 10.4 °F 20% 29.74 in 10.0 mi SSW 9.2 mph - N/A   Clear
8:55 AM 53.2 °F - 11.5 °F 19% 29.74 in 10.0 mi SSW 11.5 mph - N/A   Clear
9:15 AM 56.8 °F - 11.5 °F 17% 29.74 in 10.0 mi SSW 12.7 mph - N/A   Clear
9:35 AM 58.8 °F - 11.3 °F 15% 29.74 in 10.0 mi SSW 13.8 mph - N/A   Clear
9:55 AM 60.8 °F - 10.2 °F 14% 29.74 in 10.0 mi SSW 13.8 mph - N/A   Clear
10:15 AM 64.6 °F - 8.2 °F 11% 29.75 in 10.0 mi SW 18.4 mph - N/A   Clear
10:35 AM 66.2 °F - 7.2 °F 10% 29.75 in 10.0 mi SW 16.1 mph - N/A   Clear
10:55 AM 68.5 °F - 7.3 °F 9% 29.76 in 10.0 mi SW 19.6 mph 25.3 mph N/A   Clear
11:35 AM 71.6 °F - 6.4 °F 8% 29.75 in 10.0 mi SW 24.2 mph 28.8 mph N/A   Clear
11:55 AM 72.5 °F - 4.5 °F 7% 29.75 in 10.0 mi SW 19.6 mph 25.3 mph N/A   Clear
12:15 PM 74.7 °F - 2.8 °F 6% 29.74 in 10.0 mi SW 24.2 mph 31.1 mph N/A   Clear
12:55 PM 75.6 °F - 1.0 °F 5% 29.73 in 10.0 mi WSW 24.2 mph 29.9 mph N/A   Clear
1:15 PM 76.5 °F - 1.8 °F 5% 29.71 in 10.0 mi SW 18.4 mph 25.3 mph N/A   Clear
1:35 PM 78.3 °F - 1.8 °F 5% 29.70 in 10.0 mi SSW 23.0 mph 32.2 mph N/A   Clear
1:55 PM 79.5 °F - 2.5 °F 5% 29.69 in 10.0 mi SW 25.3 mph 32.2 mph N/A   Clear
2:15 PM 79.2 °F - 0.7 °F 5% 29.68 in 10.0 mi SW 27.6 mph 38.0 mph N/A   Clear
2:35 PM 79.3 °F - 0.9 °F 5% 29.66 in 10.0 mi SW 19.6 mph 32.2 mph N/A   Clear
2:55 PM 80.4 °F - 1.8 °F 5% 29.65 in 10.0 mi SW 25.3 mph 32.2 mph N/A   Clear
3:15 PM 80.6 °F - 1.9 °F 5% 29.64 in 10.0 mi WSW 17.3 mph 35.7 mph N/A   Clear
3:35 PM 81.1 °F - 3.9 °F 5% 29.63 in 10.0 mi SW 26.5 mph 36.8 mph N/A   Clear
3:55 PM 81.5 °F - 5.9 °F 6% 29.62 in 10.0 mi SW 29.9 mph 38.0 mph N/A   Clear
4:15 PM 80.8 °F - 5.9 °F 6% 29.61 in 10.0 mi SSW 21.9 mph 39.1 mph N/A   Clear
4:35 PM 81.3 °F - 6.1 °F 6% 29.60 in 10.0 mi SW 31.1 mph 35.7 mph N/A   Clear
4:55 PM 81.5 °F - 6.6 °F 6% 29.60 in 10.0 mi SW 24.2 mph 39.1 mph N/A   Clear
5:15 PM 81.3 °F - 5.4 °F 5% 29.59 in 10.0 mi SW 26.5 mph 34.5 mph N/A   Clear
5:35 PM 81.0 °F - 4.1 °F 5% 29.59 in 10.0 mi SW 27.6 mph 33.4 mph N/A   Clear
5:55 PM 80.8 °F - 5.7 °F 6% 29.58 in 10.0 mi SSW 27.6 mph 32.2 mph N/A   Clear
6:15 PM 80.8 °F - 5.7 °F 6% 29.57 in 10.0 mi SSW 20.7 mph 31.1 mph N/A   Clear
6:35 PM 80.2 °F - 8.4 °F 6% 29.57 in 10.0 mi SSW 19.6 mph 27.6 mph N/A   Clear
6:55 PM 79.7 °F - 9.7 °F 7% 29.56 in 10.0 mi South 20.7 mph 25.3 mph N/A   Clear
7:15 PM 78.3 °F - 8.1 °F 7% 29.57 in 10.0 mi SW 23.0 mph 28.8 mph N/A   Clear
7:35 PM 76.6 °F - 9.0 °F 7% 29.57 in 10.0 mi SSW 16.1 mph - N/A   Clear
7:55 PM 73.2 °F - 10.0 °F 9% 29.57 in 10.0 mi SSW 11.5 mph - N/A   Clear
8:15 PM 68.4 °F - 10.8 °F 11% 29.57 in 10.0 mi SSW 11.5 mph - N/A   Clear
8:35 PM 69.3 °F - 4.6 °F 8% 29.58 in 10.0 mi WSW 12.7 mph - N/A   Clear
8:55 PM 67.1 °F - 4.5 °F 8% 29.58 in 10.0 mi SW 15.0 mph - N/A   Clear
9:15 PM 64.6 °F - 2.8 °F 9% 29.59 in 10.0 mi SW 11.5 mph - N/A   Clear
9:35 PM 63.5 °F - 3.0 °F 9% 29.59 in 10.0 mi SW 13.8 mph - N/A   Clear
9:55 PM 62.8 °F - 3.2 °F 9% 29.59 in 10.0 mi SW 12.7 mph - N/A   Clear
10:15 PM 59.9 °F - 3.0 °F 10% 29.60 in 10.0 mi SW 11.5 mph - N/A   Clear
10:35 PM 61.3 °F - 4.6 °F 10% 29.60 in 10.0 mi South 15.0 mph - N/A   Clear
10:55 PM 59.5 °F - 4.5 °F 11% 29.60 in 10.0 mi SSW 12.7 mph - N/A   Clear
11:15 PM 57.6 °F - 5.7 °F 13% 29.60 in 10.0 mi SSW 11.5 mph - N/A   Clear
11:35 PM 54.5 °F - 6.1 °F 14% 29.62 in 10.0 mi SW 9.2 mph - N/A   Clear
11:55 PM 52.9 °F - 6.3 °F 15% 29.62 in 10.0 mi SSW 9.2 mph - N/A   Clear